Tracking 21476 objects as of 30-Sep-2020
HD Live streaming from Space Station
objects crossing your sky now

WORLDVIEW 2 DEB

Track WORLDVIEW 2 DEB now!
10-day predictions


NORAD ID: 43390
Int'l Code: 2009-055R
Perigee: 650.8 km
Apogee: 664.8 km
Inclination: 98.5 °
Period: 97.7 minutes
Semi major axis: 7028 km
RCS: Unknown
Launch date: October 8, 2009
Source: United States (US)
Launch site: AIR FORCE WESTERN TEST RANGE (AFWTR)

Note: This is SATELLITE DEBRIS
aabbcc
Your satellite tracking list
Your tracking list is empty




NASA's NSSDC Master Catalog

Two Line Element Set (TLE):
1 43390U 09055R   20272.31059331 +.00021976 +00000-0 +33968-2 0  9992
2 43390 098.5191 041.8992 0010000 000.3506 359.7705 14.73259824200678
Source of the keplerian elements: AFSPC